GW2929 Weather Reports


Display with metric or nautical units.
time (UTC)temp
F
wind
direction
speed
MPH
gust
MPH
rain 1hr
in
rain 24hr
in
rain mn
in
humidity
%
barometer
mb
20260503211759 80 191 2.0 2.0 0.00 0.00 0.00 53 1014.8
20260503211255 81 335 3.0 4.0 0.00 0.00 0.00 53 1015.0
20260503210755 82 172 1.0 3.0 0.00 0.00 0.00 51 1015.0
20260503210253 81 198 2.0 3.0 0.00 0.00 0.00 53 1014.9
20260503205748 81 193 2.0 4.0 0.00 0.00 0.00 51 1014.9
20260503205245 80 356 2.0 2.0 0.00 0.00 0.00 52 1015.0
20260503204741 79 44 2.0 2.0 0.00 0.00 0.00 53 1015.0
20260503204239 80 28 2.0 2.0 0.00 0.00 0.00 51 1015.0
20260503203736 80 4 2.0 3.0 0.00 0.00 0.00 52 1015.2
20260503203234 79 234 2.0 4.0 0.00 0.00 0.00 52 1015.6
20260503202731 80 192 2.0 2.0 0.00 0.00 0.00 53 1015.3
20260503202229 80 189 2.0 3.0 0.00 0.00 0.00 52 1015.7
20260503201726 80 1 6.0 11.0 0.00 0.00 0.00 52 1015.3
20260503201224 80 293 4.0 6.0 0.00 0.00 0.00 52 1015.4
20260503200720 81 209 3.0 4.0 0.00 0.00 0.00 51 1015.7
20260503200216 81 204 1.0 1.0 0.00 0.00 0.00 51 1015.9
20260503195713 81 263 2.0 2.0 0.00 0.00 0.00 50 1016.1
20260503195210 82 268 2.0 2.0 0.00 0.00 0.00 49 1016.0
20260503194707 80 320 2.0 2.0 0.00 0.00 0.00 50 1016.0
20260503194203 80 336 5.0 8.0 0.00 0.00 0.00 50 1016.2
20260503193700 81 319 2.0 3.0 0.00 0.00 0.00 50 1016.3
20260503193155 80 136 1.0 1.0 0.00 0.00 0.00 50 1016.4
20260503192651 81 253 0.0 1.0 0.00 0.00 0.00 49 1016.3
20260503192147 81 343 2.0 3.0 0.00 0.00 0.00 48 1016.5
20260503191644 81 247 4.0 7.0 0.00 0.00 0.00 50 1016.5
20260503191141 80 339 2.0 2.0 0.00 0.00 0.00 50 1016.5
20260503190638 80 21 3.0 3.0 0.00 0.00 0.00 50 1016.4
20260503190135 80 23 3.0 6.0 0.00 0.00 0.00 50 1016.7
20260503185631 80 323 3.0 3.0 0.00 0.00 0.00 50 1016.8
20260503185126 80 307 2.0 3.0 0.00 0.00 0.00 49 1016.9
20260503184622 80 357 2.0 2.0 0.00 0.00 0.00 50 1016.8
20260503184118 79 21 2.0 4.0 0.00 0.00 0.00 51 1017.2
20260503183615 80 8 3.0 4.0 0.00 0.00 0.00 50 1017.0
20260503183112 80 25 4.0 8.0 0.00 0.00 0.00 50 1017.1
20260503182611 79 302 2.0 3.0 0.00 0.00 0.00 50 1017.3
20260503182109 80 220 2.0 4.0 0.00 0.00 0.00 50 1017.2
20260503181605 81 167 0.0 0.0 0.00 0.00 0.00 51 1017.4
20260503181102 79 206 2.0 2.0 0.00 0.00 0.00 52 1017.5
20260503180559 80 50 3.0 3.0 0.00 0.00 0.00 51 1017.4
20260503180056 80 280 1.0 2.0 0.00 0.00 0.00 50 1017.6
20260503175553 79 352 4.0 6.0 0.00 0.00 0.00 55 1017.7
20260503175051 79 16 4.0 6.0 0.00 0.00 0.00 54 1017.8
20260503174547 79 225 0.0 1.0 0.00 0.00 0.00 58 1017.5
20260503174044 80 43 2.0 2.0 0.00 0.00 0.00 57 1017.8
20260503173539 80 87 1.0 2.0 0.00 0.00 0.00 57 1017.8
20260503173035 79 33 1.0 2.0 0.00 0.00 0.00 59 1018.0
20260503172533 79 69 1.0 3.0 0.00 0.00 0.00 58 1018.0
20260503172030 78 289 2.0 2.0 0.00 0.00 0.00 58 1018.0
20260503171526 80 330 4.0 6.0 0.00 0.00 0.00 54 1018.1
20260503171024 78 70 1.0 2.0 0.00 0.00 0.00 57 1017.9
20260503170520 80 288 1.0 2.0 0.00 0.00 0.00 54 1017.9
20260503150913 77 225 0.0 1.0 0.00 0.00 0.00 65 1018.2
20260503150409 76 179 0.0 0.0 0.00 0.00 0.00 65 1018.4
20260503131303 68 225 0.0 0.0 0.00 0.00 0.00 81 1017.4
20260503130800 68 240 1.0 2.0 0.00 0.00 0.00 82 1017.2
20260503130257 67 218 1.0 2.0 0.00 0.00 0.00 83 1017.1
20260503110651 57 234 0.0 0.0 0.00 0.00 0.00 92 1016.4
20260503110148 57 229 0.0 0.0 0.00 0.00 0.00 92 1016.5
20260503100115 58 220 0.0 0.0 0.00 0.00 0.00 93 1016.4
20260503081504 60 217 0.0 0.0 0.00 0.00 0.00 86 1016.5
20260503081001 60 217 0.0 0.0 0.00 0.00 0.00 86 1016.5
20260503080457 60 217 0.0 0.0 0.00 0.00 0.00 85 1016.6
20260503072934 62 217 0.0 0.0 0.00 0.00 0.00 81 1016.5
20260503072431 62 217 0.0 0.0 0.00 0.00 0.00 81 1016.6
20260503071928 62 216 0.0 0.0 0.00 0.00 0.00 80 1016.8
20260503071425 62 216 0.0 0.0 0.00 0.00 0.00 79 1016.8
20260503070921 62 216 0.0 0.0 0.00 0.00 0.00 79 1016.8
20260503070418 63 216 0.0 0.0 0.00 0.00 0.00 78 1016.5
20260503054832 67 213 0.0 0.0 0.00 0.00 0.00 65 1016.9
20260503054328 68 206 0.0 0.0 0.00 0.00 0.00 65 1016.6
20260503053826 68 204 0.0 0.0 0.00 0.00 0.00 66 1016.6
20260503053324 68 205 0.0 0.0 0.00 0.00 0.00 66 1016.9
20260503052820 68 156 0.0 1.0 0.00 0.00 0.00 65 1016.7
20260503052317 68 189 0.0 0.0 0.00 0.00 0.00 66 1016.7
20260503051813 66 212 0.0 0.0 0.00 0.00 0.00 68 1016.7
20260503051310 66 215 0.0 0.0 0.00 0.00 0.00 72 1016.7
20260503050806 67 215 0.0 0.0 0.00 0.00 0.00 72 1016.7
20260503050303 67 215 0.0 0.0 0.00 0.00 0.00 71 1016.3
20260503045801 68 216 0.0 0.0 0.00 0.00 0.00 70 1016.6
20260503045258 68 218 0.0 0.0 0.00 0.00 0.00 68 1016.6
20260503044754 68 203 0.0 0.0 0.00 0.00 0.00 68 1016.7
20260503044251 69 204 0.0 0.0 0.00 0.00 0.00 67 1016.7
20260503043748 69 214 0.0 0.0 0.00 0.00 0.00 68 1016.6
20260503043245 69 229 0.0 0.0 0.00 0.00 0.00 67 1016.4
20260503042741 69 222 0.0 0.0 0.00 0.00 0.00 67 1016.5
20260503042238 69 202 0.0 0.0 0.00 0.00 0.00 67 1016.4
20260503041734 69 210 0.0 0.0 0.00 0.00 0.00 66 1016.2
20260503041232 69 220 0.0 0.0 0.00 0.00 0.00 65 1016.2
20260503040729 69 200 0.0 1.0 0.00 0.00 0.00 65 1016.2
20260503040221 69 200 0.0 0.0 0.00 0.00 0.00 64 1016.4
20260503035718 70 210 0.0 0.0 0.00 0.00 0.00 63 1016.2
20260503035215 70 188 0.0 1.0 0.00 0.00 0.00 62 1016.1
20260503034712 70 230 0.0 1.0 0.00 0.00 0.00 62 1016.1
20260503034209 70 219 0.0 1.0 0.00 0.00 0.00 62 1016.3
20260503033706 71 219 0.0 1.0 0.00 0.00 0.00 61 1016.1
20260503033204 71 224 0.0 1.0 0.00 0.00 0.00 60 1016.2
20260503032702 71 177 1.0 1.0 0.00 0.00 0.00 58 1016.2
20260503032200 71 183 2.0 2.0 0.00 0.00 0.00 59 1015.9
20260503031657 71 231 0.0 0.0 0.00 0.00 0.00 60 1015.9
20260503031155 71 274 2.0 2.0 0.00 0.00 0.00 59 1015.9
20260503030651 71 300 2.0 3.0 0.00 0.00 0.00 58 1015.8
20260503030148 71 251 2.0 2.0 0.00 0.00 0.00 58 1015.8
20260503025645 71 350 2.0 2.0 0.00 0.00 0.00 58 1015.7
20260503025143 71 266 1.0 2.0 0.00 0.00 0.00 59 1015.6
20260503024639 71 251 2.0 3.0 0.00 0.00 0.00 59 1015.6
20260503024136 71 169 1.0 1.0 0.00 0.00 0.00 59 1015.6
20260503023632 71 311 3.0 4.0 0.00 0.00 0.00 58 1015.4
20260503023129 71 216 0.0 1.0 0.00 0.00 0.00 60 1015.3
20260503022625 71 259 1.0 1.0 0.00 0.00 0.00 60 1015.2
20260503022120 71 36 2.0 3.0 0.00 0.00 0.00 59 1015.0
20260503021617 71 212 1.0 2.0 0.00 0.00 0.00 60 1015.1
20260503021114 71 209 1.0 1.0 0.00 0.00 0.00 59 1014.9
20260503020611 71 332 1.0 2.0 0.00 0.00 0.00 59 1014.7
20260503020108 71 117 1.0 1.0 0.00 0.00 0.00 58 1014.7
20260503015605 71 320 2.0 3.0 0.00 0.00 0.00 58 1014.7
20260503015102 71 343 2.0 2.0 0.00 0.00 0.00 58 1014.9
20260503014557 72 40 0.0 0.0 0.00 0.00 0.00 58 1014.8
20260503014055 72 280 2.0 2.0 0.00 0.00 0.00 57 1014.6
20260503013553 72 265 0.0 1.0 0.00 0.00 0.00 57 1014.6
20260503013050 72 299 2.0 3.0 0.00 0.00 0.00 57 1014.5
20260503012548 72 290 1.0 2.0 0.00 0.00 0.00 57 1014.5
20260503012044 72 227 2.0 2.0 0.00 0.00 0.00 56 1014.5
20260503011541 72 275 0.0 0.0 0.00 0.00 0.00 58 1014.3
20260503011038 72 226 1.0 2.0 0.00 0.00 0.00 58 1014.4
20260503010534 73 279 1.0 2.0 0.00 0.00 0.00 57 1014.3
20260503010032 73 56 3.0 3.0 0.00 0.00 0.00 57 1014.6
20260503005529 73 156 1.0 2.0 0.00 0.00 0.00 57 1014.3
20260503005026 73 239 0.0 1.0 0.00 0.00 0.00 58 1014.3
20260503004522 73 279 1.0 2.0 0.00 0.00 0.00 57 1014.4
20260503004020 73 343 1.0 2.0 0.00 0.00 0.00 58 1014.3
20260503003516 73 145 1.0 1.0 0.00 0.00 0.00 59 1014.3
20260503003014 73 335 2.0 2.0 0.00 0.00 0.00 59 1014.3
20260503002511 73 16 4.0 7.0 0.00 0.00 0.00 58 1014.2
20260503002007 73 356 2.0 3.0 0.00 0.00 0.00 58 1014.3
20260503001504 73 47 1.0 1.0 0.00 0.00 0.00 58 1014.4
20260503001001 73 356 1.0 2.0 0.00 0.00 0.00 58 1014.4
20260503000459 73 344 1.0 2.0 0.00 0.00 0.00 59 1014.5
20260502235955 73 92 0.0 1.0 0.00 0.00 0.00 59 1014.5
20260502235452 74 353 4.0 4.0 0.00 0.00 0.00 58 1014.4
20260502234950 74 345 1.0 2.0 0.00 0.00 0.00 58 1014.2
20260502234446 74 34 2.0 2.0 0.00 0.00 0.00 58 1014.0
20260502233943 74 341 2.0 2.0 0.00 0.00 0.00 58 1014.0
20260502233438 74 38 5.0 7.0 0.00 0.00 0.00 58 1014.0
20260502232936 74 10 3.0 4.0 0.00 0.00 0.00 57 1014.1
20260502232432 75 351 3.0 3.0 0.00 0.00 0.00 57 1014.0
20260502231929 75 346 3.0 6.0 0.00 0.00 0.00 56 1014.2
20260502231426 74 358 2.0 3.0 0.00 0.00 0.00 56 1014.1
20260502230924 74 346 3.0 4.0 0.00 0.00 0.00 56 1014.5
20260502230422 75 184 1.0 1.0 0.00 0.00 0.00 57 1014.1
20260502225920 75 235 2.0 2.0 0.00 0.00 0.00 56 1014.1
20260502225416 75 230 3.0 6.0 0.00 0.00 0.00 55 1014.0
20260502224913 75 340 2.0 4.0 0.00 0.00 0.00 56 1014.0
20260502224408 75 357 5.0 7.0 0.00 0.00 0.00 55 1014.1
20260502223906 75 2 4.0 7.0 0.00 0.00 0.00 56 1014.1
20260502223404 75 27 0.0 0.0 0.00 0.00 0.00 57 1014.1
20260502222902 75 156 1.0 2.0 0.00 0.00 0.00 55 1014.0
20260502222359 76 208 0.0 1.0 0.00 0.00 0.00 54 1014.1
20260502221854 76 260 1.0 2.0 0.00 0.00 0.00 55 1014.1
20260502221351 75 31 3.0 4.0 0.00 0.00 0.00 54 1013.9
20260502220848 76 2 5.0 7.0 0.00 0.00 0.00 53 1014.2
20260502220344 76 314 1.0 1.0 0.00 0.00 0.00 53 1014.0
20260502215841 76 38 3.0 4.0 0.00 0.00 0.00 54 1014.1
20260502215338 75 359 4.0 6.0 0.00 0.00 0.00 53 1014.0
20260502214835 76 56 4.0 6.0 0.00 0.00 0.00 53 1014.1
20260502214332 76 4 4.0 6.0 0.00 0.00 0.00 53 1014.1
20260502213829 76 302 0.0 1.0 0.00 0.00 0.00 55 1014.0
20260502213326 77 337 3.0 6.0 0.00 0.00 0.00 53 1014.2
20260502212825 76 215 0.0 1.0 0.00 0.00 0.00 54 1014.2
20260502212323 77 341 2.0 3.0 0.00 0.00 0.00 52 1014.3